Kwajalein, Marshall Islands

8:40 PM +12 on December 16, 2019 (GMT +1200)
Bucholz Army Air Field

Weather History for PKWA - October, 2019

Change the Weather History Date:

Saturday, October 19, 2019

  Actual Average Record
Temperature  
Mean Temperature 84 °F -  
Max Temperature 88 °F 84 °F 88 °F (1996)
Min Temperature 79 °F 77 °F 75 °F (2001)
Cooling Degree Days 18    
Growing Degree Days 34 (Base 50)    
Moisture  
Dew Point 78 °F    
Average Humidity 82    
Maximum Humidity 97    
Minimum Humidity 71    
Precipitation  
Precipitation 0.13 in 0.37 in - ()
Sea Level Pressure  
Sea Level Pressure 29.86 in    
Wind  
Wind Speed 6 mph ()    
Max Wind Speed 13 mph    
Max Gust Speed 16 mph    
Visibility 9.9 miles    
Events Rain , Thunderstorm    
Averages and records for this station are not official NWS values.
T = Trace of Precipitation, MM = Missing Value Source: Averaged Metar Reports

Daily Weather History Graph

Daily Weather History Graph

Search for Another Location

Airport or City:

Astronomy

Oct. 19, 2019 Rise Set
Actual Time 6:36 AM +12 6:31 PM +12
Civil Twilight 6:15 AM +12 6:52 PM +12
Nautical Twilight 5:51 AM +12 7:17 PM +12
Astronomical Twilight 5:26 AM +12 7:41 PM +12
Moon 10:44 PM +12 (10/19) 10:46 AM +12 (10/19)
Length of Visible Light 12h 36m
Length of Day
11h 54m
Waning Gibbous, 76% of the Moon is Illuminated
Oct 19
Waning Gibbous
Oct 22
Last Quarter
Oct 28
New
Nov 4
First Quarter
Nov 13
Full

Hourly Weather History & Observations

Time (+12) Temp. Heat Index Dew Point Humidity Pressure Visibility Wind Dir Wind Speed Gust Speed Precip Events Conditions
12:00 AM 84.4 °F 95.4 °F 77.9 °F 81% 29.89 in 10.0 mi ESE 9.2 mph - N/A   Scattered Clouds
12:20 AM 84.2 °F 94.9 °F 77.9 °F 81% 29.89 in 10.0 mi ESE 8.1 mph - N/A   Mostly Cloudy
12:40 AM 84.2 °F 94.9 °F 77.9 °F 81% 29.89 in 10.0 mi ESE 6.9 mph - N/A   Scattered Clouds
1:00 AM 84.2 °F 94.9 °F 77.7 °F 81% 29.88 in 10.0 mi ESE 8.1 mph - N/A   Scattered Clouds
1:20 AM 84.2 °F 94.9 °F 77.7 °F 81% 29.88 in 10.0 mi SE 8.1 mph - N/A   Scattered Clouds
1:40 AM 84.2 °F 94.9 °F 77.7 °F 81% 29.87 in 10.0 mi ESE 8.1 mph - N/A   Scattered Clouds
2:00 AM 84.2 °F 94.9 °F 77.7 °F 81% 29.86 in 10.0 mi ESE 6.9 mph - N/A   Scattered Clouds
2:20 AM 84.0 °F 94.4 °F 77.5 °F 81% 29.86 in 10.0 mi ESE 6.9 mph - N/A   Scattered Clouds
2:40 AM 84.0 °F 94.4 °F 77.5 °F 81% 29.85 in 10.0 mi ESE 6.9 mph - N/A   Clear
3:00 AM 83.8 °F 93.9 °F 77.5 °F 81% 29.85 in 10.0 mi SE 9.2 mph - N/A   Clear
3:20 AM 83.8 °F 93.9 °F 77.4 °F 81% 29.85 in 10.0 mi ESE 6.9 mph - N/A   Scattered Clouds
3:40 AM 83.8 °F 93.5 °F 77.2 °F 80% 29.84 in 10.0 mi SE 8.1 mph - N/A   Clear
4:00 AM 83.8 °F 93.5 °F 77.2 °F 80% 29.84 in 10.0 mi SE 8.1 mph - N/A   Clear
4:20 AM 83.8 °F 93.5 °F 77.2 °F 80% 29.84 in 10.0 mi SE 6.9 mph - N/A   Clear
4:40 AM 83.8 °F 93.9 °F 77.4 °F 81% 29.84 in 10.0 mi SE 8.1 mph - N/A   Clear
5:00 AM 83.7 °F 93.4 °F 77.4 °F 81% 29.84 in 10.0 mi ESE 5.8 mph - N/A   Scattered Clouds
5:20 AM 83.8 °F 93.9 °F 77.5 °F 81% 29.84 in 10.0 mi SSE 8.1 mph - N/A   Scattered Clouds
5:40 AM 83.7 °F 93.8 °F 77.7 °F 82% 29.84 in 10.0 mi SE 5.8 mph - N/A   Scattered Clouds
6:00 AM 83.7 °F 94.1 °F 77.9 °F 83% 29.84 in 10.0 mi SE 6.9 mph - N/A   Clear
6:20 AM 83.7 °F 94.1 °F 77.9 °F 83% 29.84 in 10.0 mi SSE 8.1 mph - N/A   Clear
6:40 AM 83.7 °F 94.1 °F 78.1 °F 83% 29.85 in 10.0 mi SE 9.2 mph - N/A   Clear
7:00 AM 83.7 °F 94.1 °F 77.9 °F 83% 29.85 in 10.0 mi SE 6.9 mph - N/A   Clear
7:20 AM 84.0 °F 94.4 °F 77.7 °F 81% 29.86 in 10.0 mi SE 10.4 mph - N/A   Clear
7:40 AM 84.6 °F 95.1 °F 77.5 °F 79% 29.86 in 10.0 mi SE 8.1 mph - N/A   Clear
8:00 AM 84.9 °F 95.7 °F 77.5 °F 78% 29.86 in 10.0 mi SE 9.2 mph - N/A   Scattered Clouds
8:20 AM 85.6 °F 97.3 °F 77.5 °F 77% 29.87 in 10.0 mi SE 9.2 mph - N/A   Clear
8:40 AM 86.2 °F 98.3 °F 77.7 °F 76% 29.88 in 10.0 mi SSE 8.1 mph - N/A   Clear
9:00 AM 86.7 °F 98.8 °F 77.7 °F 74% 29.88 in 10.0 mi SSE 5.8 mph - N/A   Clear
9:20 AM 87.1 °F 99.8 °F 77.9 °F 74% 29.88 in 10.0 mi SSE 6.9 mph - N/A   Scattered Clouds
9:40 AM 87.4 °F 100.3 °F 77.9 °F 73% 29.88 in 10.0 mi SE 5.8 mph - N/A   Clear
10:00 AM 87.8 °F 101.3 °F 78.1 °F 73% 29.88 in 10.0 mi SE 5.8 mph - N/A   Clear
10:20 AM 88.0 °F 101.3 °F 78.1 °F 72% 29.88 in 10.0 mi SE 5.8 mph - N/A   Clear
10:40 AM 88.2 °F 101.8 °F 78.1 °F 72% 29.88 in 10.0 mi SE 5.8 mph - N/A   Clear
11:00 AM 88.5 °F 102.2 °F 78.1 °F 71% 29.88 in 10.0 mi SSE 4.6 mph - N/A   Scattered Clouds
11:20 AM 88.5 °F 102.2 °F 78.1 °F 71% 29.86 in 10.0 mi SSE 3.5 mph - N/A   Scattered Clouds
11:40 AM 88.3 °F 102.3 °F 78.1 °F 72% 29.86 in 10.0 mi SSE 3.5 mph - N/A   Mostly Cloudy
12:00 PM 88.2 °F 101.8 °F 78.1 °F 72% 29.86 in 10.0 mi SSW 12.7 mph - N/A   Overcast
12:20 PM 87.6 °F 101.4 °F 78.4 °F 74% 29.85 in 10.0 mi SSW 10.4 mph - N/A Rain Light Rain
12:40 PM 86.9 °F 100.4 °F 78.6 °F 76% 29.84 in 10.0 mi South 8.1 mph - N/A   Mostly Cloudy
1:00 PM 86.7 °F 99.9 °F 78.4 °F 76% 29.84 in 10.0 mi SSE 6.9 mph - N/A   Scattered Clouds
1:20 PM 86.9 °F 99.9 °F 78.3 °F 75% 29.84 in 10.0 mi East 6.9 mph - N/A   Scattered Clouds
1:40 PM 86.2 °F 99.3 °F 78.4 °F 78% 29.82 in 10.0 mi Calm Calm - 0.01 in   Overcast
2:00 PM 86.2 °F 98.8 °F 78.3 °F 77% 29.81 in 10.0 mi Calm Calm - N/A   Scattered Clouds
2:20 PM 86.5 °F 99.4 °F 78.3 °F 76% 29.80 in 10.0 mi Calm Calm - N/A   Scattered Clouds
2:40 PM 86.7 °F 99.3 °F 78.1 °F 75% 29.80 in 10.0 mi Calm Calm - N/A Thunderstorm Mostly Cloudy
3:00 PM 86.9 °F 99.9 °F 78.1 °F 75% 29.80 in 10.0 mi SSW 4.6 mph - N/A Thunderstorm Overcast
3:20 PM 87.4 °F 100.3 °F 77.7 °F 73% 29.80 in 10.0 mi SW 4.6 mph - N/A   Mostly Cloudy
3:40 PM 87.4 °F 99.8 °F 77.4 °F 72% 29.80 in 10.0 mi Calm Calm - N/A   Mostly Cloudy
4:00 PM 87.1 °F 98.3 °F 76.8 °F 71% 29.80 in 10.0 mi Calm Calm - N/A   Mostly Cloudy
4:20 PM 85.8 °F 96.8 °F 77.0 °F 75% 29.81 in 7.0 mi NNE 11.5 mph 16.1 mph 0.01 in Rain Heavy Rain
4:40 PM 84.0 °F 94.0 °F 77.2 °F 80% 29.82 in 2.5 mi NNW 6.9 mph - 0.12 in Rain , Thunderstorm Rain
5:00 PM 82.4 °F 91.2 °F 77.4 °F 85% 29.82 in 10.0 mi WNW 6.9 mph - N/A Thunderstorm Overcast
5:20 PM 81.1 °F 88.7 °F 77.7 °F 89% 29.83 in 10.0 mi WNW 5.8 mph - N/A   Overcast
5:40 PM 80.1 °F 86.4 °F 78.1 °F 94% 29.83 in 10.0 mi Calm Calm - N/A   Mostly Cloudy
6:00 PM 79.7 °F - 78.4 °F 96% 29.84 in 10.0 mi NW 3.5 mph - N/A   Overcast
6:20 PM 79.9 °F - 78.8 °F 96% 29.86 in 10.0 mi WSW 9.2 mph - N/A   Mostly Cloudy
6:40 PM 80.2 °F 87.3 °F 79.2 °F 96% 29.85 in 10.0 mi West 6.9 mph - N/A   Clear
7:00 PM 80.6 °F 88.5 °F 79.5 °F 96% 29.85 in 10.0 mi WNW 6.9 mph - N/A   Clear
7:20 PM 80.6 °F 88.7 °F 79.7 °F 97% 29.87 in 10.0 mi West 5.8 mph - N/A   Clear
7:40 PM 80.8 °F 89.3 °F 79.9 °F 97% 29.87 in 10.0 mi NW 4.6 mph - N/A   Clear
8:00 PM 80.8 °F 89.3 °F 79.9 °F 97% 29.88 in 10.0 mi WNW 5.8 mph - N/A   Clear
8:20 PM 81.0 °F 89.7 °F 79.9 °F 96% 29.88 in 10.0 mi NW 4.6 mph - N/A   Clear
8:40 PM 81.0 °F 89.7 °F 79.7 °F 96% 29.90 in 10.0 mi NW 4.6 mph - N/A   Clear
9:00 PM 81.3 °F 90.4 °F 79.3 °F 94% 29.90 in 10.0 mi NNW 4.6 mph - N/A   Scattered Clouds
9:20 PM 81.5 °F 90.2 °F 78.8 °F 91% 29.89 in 10.0 mi NNW 5.8 mph - N/A   Clear
9:40 PM 81.7 °F 90.2 °F 78.3 °F 89% 29.90 in 10.0 mi NW 4.6 mph - N/A   Clear
10:00 PM 81.9 °F 90.5 °F 77.9 °F 88% 29.89 in 10.0 mi NW 3.5 mph - N/A   Clear
10:20 PM 82.0 °F 90.5 °F 77.5 °F 86% 29.90 in 10.0 mi NW 4.6 mph - N/A   Clear
10:40 PM 82.2 °F 91.0 °F 77.5 °F 86% 29.90 in 10.0 mi NNW 4.6 mph - N/A   Clear
11:00 PM 82.4 °F 91.5 °F 77.7 °F 86% 29.90 in 10.0 mi North 5.8 mph - N/A   Scattered Clouds
11:20 PM 82.6 °F 92.0 °F 77.9 °F 86% 29.90 in 10.0 mi NNW 6.9 mph - N/A   Scattered Clouds
11:40 PM 82.6 °F 92.0 °F 78.1 °F 86% 29.90 in 10.0 mi North 4.6 mph - N/A   Clear